Time,TemperatureF,DewpointF,PressureIn,WindDirection,WindDirectionDegrees,WindSpeedMPH,WindSpeedGustMPH,Humidity,HourlyPrecipIn,Conditions,Clouds,dailyrainin,SoftwareType,DateUTC
2013-02-04 01:10:00,52.0,-99.9,-100.00,WSW,249,5.0,7.0,-999,-99.99,,,-99.99,,2013-02-04 07:10:00,
2013-02-04 01:52:00,52.0,-99.9,-100.00,WSW,249,5.0,7.0,-999,-99.99,,,-99.99,,2013-02-04 07:52:00,
2013-02-04 02:01:00,52.0,-99.9,-100.00,WSW,249,5.0,7.0,-999,-99.99,,,-99.99,,2013-02-04 08:01:00,
2013-02-04 05:30:00,47.0,-99.9,-100.00,WSW,244,6.0,7.0,-999,-99.99,,,-99.99,,2013-02-04 11:30:00,
2013-02-04 05:53:00,48.0,-99.9,-100.00,WSW,255,3.0,4.0,-999,-99.99,,,-99.99,,2013-02-04 11:53:00,
2013-02-04 06:03:00,48.0,-99.9,-100.00,WSW,255,3.0,4.0,-999,-99.99,,,-99.99,,2013-02-04 12:03:00,
2013-02-04 06:10:00,46.0,-99.9,-100.00,ENE,61,0.0,3.0,-999,-99.99,,,-99.99,,2013-02-04 12:10:00,
2013-02-04 06:12:00,48.0,-99.9,-100.00,WSW,255,3.0,4.0,-999,-99.99,,,-99.99,,2013-02-04 12:12:00,
2013-02-04 06:22:00,47.0,-99.9,-100.00,WSW,244,6.0,7.0,-999,-99.99,,,-99.99,,2013-02-04 12:22:00,
2013-02-04 06:53:00,46.0,-99.9,-100.00,ENE,61,0.0,3.0,-999,-99.99,,,-99.99,,2013-02-04 12:53:00,
2013-02-04 07:03:00,46.0,-99.9,-100.00,ENE,61,0.0,3.0,-999,-99.99,,,-99.99,,2013-02-04 13:03:00,
2013-02-04 07:30:00,43.0,-99.9,-100.00,WSW,254,4.0,6.0,-999,-99.99,,,-99.99,,2013-02-04 13:30:00,
2013-02-04 07:52:00,43.0,-99.9,-100.00,WSW,245,6.0,8.0,-999,-99.99,,,-99.99,,2013-02-04 13:52:00,
2013-02-04 08:03:00,43.0,-99.9,-100.00,WSW,254,4.0,6.0,-999,-99.99,,,-99.99,,2013-02-04 14:03:00,
2013-02-04 08:12:00,43.0,-99.9,-100.00,WSW,254,4.0,6.0,-999,-99.99,,,-99.99,,2013-02-04 14:12:00,
2013-02-04 08:20:00,49.0,-99.9,-100.00,SW,232,4.0,4.0,-999,-99.99,,,-99.99,,2013-02-04 14:20:00,
2013-02-04 08:23:00,43.0,-99.9,-100.00,WSW,254,4.0,6.0,-999,-99.99,,,-99.99,,2013-02-04 14:23:00,
2013-02-04 09:04:00,49.0,-99.9,-100.00,SW,232,4.0,4.0,-999,-99.99,,,-99.99,,2013-02-04 15:04:00,
2013-02-04 09:13:00,49.0,-99.9,-100.00,SW,232,4.0,4.0,-999,-99.99,,,-99.99,,2013-02-04 15:13:00,
2013-02-04 12:04:00,71.0,-99.9,-100.00,WNW,286,6.0,6.0,-999,-99.99,,,-99.99,,2013-02-04 18:04:00,
2013-02-04 12:12:00,71.0,-99.9,-100.00,WNW,286,6.0,6.0,-999,-99.99,,,-99.99,,2013-02-04 18:12:00,
2013-02-04 14:22:00,69.0,-99.9,-100.00,NW,320,5.0,8.0,-999,-99.99,,,-99.99,,2013-02-04 20:22:00,
2013-02-04 14:32:00,69.0,-99.9,-100.00,NW,320,5.0,8.0,-999,-99.99,,,-99.99,,2013-02-04 20:32:00,
2013-02-04 16:03:00,72.0,-99.9,-100.00,WNW,303,4.0,9.0,-999,-99.99,,,-99.99,,2013-02-04 22:03:00,
2013-02-04 16:10:00,69.0,-99.9,-100.00,NW,312,4.0,8.0,-999,-99.99,,,-99.99,,2013-02-04 22:10:00,
2013-02-04 16:12:00,72.0,-99.9,-100.00,WNW,303,4.0,9.0,-999,-99.99,,,-99.99,,2013-02-04 22:12:00,
2013-02-04 16:22:00,72.0,-99.9,-100.00,WNW,303,4.0,9.0,-999,-99.99,,,-99.99,,2013-02-04 22:22:00,
2013-02-04 16:52:00,69.0,-99.9,-100.00,NW,312,4.0,8.0,-999,-99.99,,,-99.99,,2013-02-04 22:52:00,
2013-02-04 17:02:00,69.0,-99.9,-100.00,NW,312,4.0,8.0,-999,-99.99,,,-99.99,,2013-02-04 23:02:00,
2013-02-04 18:30:00,62.0,-99.9,-100.00,NE,51,3.0,5.0,-999,-99.99,,,-99.99,,2013-02-05 00:30:00,
2013-02-04 19:20:00,58.0,-99.9,-100.00,WSW,240,4.0,5.0,-999,-99.99,,,-99.99,,2013-02-05 01:20:00,
2013-02-04 19:22:00,62.0,-99.9,-100.00,NE,51,3.0,5.0,-999,-99.99,,,-99.99,,2013-02-05 01:22:00,
2013-02-04 20:02:00,58.0,-99.9,-100.00,WSW,240,4.0,5.0,-999,-99.99,,,-99.99,,2013-02-05 02:02:00,
2013-02-04 20:12:00,58.0,-99.9,-100.00,WSW,240,4.0,5.0,-999,-99.99,,,-99.99,,2013-02-05 02:12:00,
2013-02-04 21:32:00,50.0,-99.9,-100.00,WSW,238,3.0,3.0,-999,-99.99,,,-99.99,,2013-02-05 03:32:00,
2013-02-04 21:42:00,50.0,-99.9,-100.00,WSW,238,3.0,3.0,-999,-99.99,,,-99.99,,2013-02-05 03:42:00,
2013-02-04 21:52:00,50.0,-99.9,-100.00,WSW,238,3.0,3.0,-999,-99.99,,,-99.99,,2013-02-05 03:52:00,